Regional Weather Roundup
Issued by NWS

Home | Current Version | Previous Version | Text Only | Print | Product List | Glossary Off
Versions: 1 2 3 4 5 6 7 8 9 10 11 12 13 14 15 16 17 18 19 20 21 22 23 24 25 26 27 28 29 30 31 32 33 34 35 36 37 38 39 40 41 42 43 44 45 46 47 48 49 50

000
ASUS43 KMKX 032211
RWRWI

WISCONSIN REGIONAL WEATHER ROUNDUP
NATIONAL WEATHER SERVICE MILWAUKEE/SULLIVAN WI
500 PM CDT TUE MAY 03 2016

NOTE: "FAIR" INDICATES FEW OR NO CLOUDS BELOW 12,000 FEET WITH NO
SIGNIFICANT WEATHER AND/OR OBSTRUCTIONS TO VISIBILITY.

WIZ001-002-006>008-014>016-023>028-032300-
NORTHWEST WISCONSIN

CITY           SKY/WX    TMP DP  RH WIND       PRES   REMARKS
SUPERIOR ARPT  PTSUNNY   68  29  24 N15G25    29.67R
ASHLAND        CLOUDY    62  38  40 NE10      29.67R
HAYWARD        MOSUNNY   65  37  35 N7        29.66F
SIREN          PTSUNNY   67  36  31 N12G26    29.66S
CUMBERLAND     LGT RAIN  57  43  58 NW10      29.66R
RICE LAKE      PTSUNNY   67  36  31 W17G32    29.66F
CHETEK         PTSUNNY   67  41  38 W12G23    29.63F
LADYSMITH      CLOUDY    57  46  65 NW7       29.67F THUNDER
EAU CLAIRE     CLOUDY    69  37  30 W20G32    29.66F
MENOMONIE      LGT RAIN  68  36  30 W20G28    29.67F
NEW RICHMOND   PTSUNNY   68  38  34 W16G25    29.67F
OSCEOLA        CLOUDY    69  38  32 W23G29    29.69F
$$

WIZ003>005-009-010-017-018-032300-
NORTH CENTRAL WISCONSIN

CITY           SKY/WX    TMP DP  RH WIND       PRES   REMARKS
MANITOWISH WTR MOSUNNY   54  48  78 W5        29.68R
ARBOR VITAE    CLOUDY    52  48  87 SW5       29.68F
WOODRUFF       CLOUDY    52  48  87 SW5       29.68F
RHINELANDER    LGT RAIN  50  44  80 N6        29.70F
EAGLE RIVER    CLOUDY    51  47  86 W7        29.68F
LAND O LAKES   CLOUDY    52  45  76 W8        29.68F
PHILLIPS       LGT RAIN  58  40  51 NW9       29.68S
TOMAHAWK       CLOUDY    52  47  82 CALM      29.70F
MEDFORD        LGT RAIN  58  41  53 SW5       29.67F
MERRILL        RAIN      53  45  75 N5        29.71R
$$

WIZ029-030-035-036-043>047-032300-
CENTRAL WISCONSIN

CITY           SKY/WX    TMP DP  RH WIND       PRES   REMARKS
WAUSAU         LGT RAIN  60  40  47 NW13G23   29.67R
MOSINEE        CLOUDY    63  32  31 W13G24    29.69S
MARSHFIELD     LGT RAIN  61  37  41 NW13G28   29.69R
STEVENS POINT  LGT RAIN  62  35  36 NW17G35   29.69R
WAUPACA        CLOUDY    67  30  24 W10G17    29.68S
WAUTOMA        CLOUDY    67  34  29 W18G24    29.69F
WISC RAPIDS    CLOUDY    66  30  26 W12G22    29.69F
CAMP DOUGLAS   PTSUNNY   68  39  34 W25G32    29.69F
$$

WIZ011>013-019>022-031-037>040-048>050-032300-
NORTHEAST WISCONSIN

CITY           SKY/WX    TMP DP  RH WIND       PRES   REMARKS
ANTIGO         LGT RAIN  52  43  70 NW15G21   29.72R
SHAWANO        CLOUDY    66  32  28 W10G28    29.67R
OCONTO         CLOUDY    65  35  33 W5        29.64S
STURGEON BAY   CLOUDY    63  36  36 W13G23    29.69R
GREEN BAY      CLOUDY    66  34  30 W10       29.66F
MANITOWOC      CLOUDY    68  33  27 MISG      29.68F
APPLETON       PTSUNNY   66  27  22 W12G22    29.66F
CLINTONVILLE   CLOUDY    64  32  29 W12G18    29.66S
OSHKOSH        CLOUDY    67  33  28 W12G22    29.68F
$$

WIZ032>034-041-042-053>061-032300-
SOUTHWEST WISCONSIN

CITY           SKY/WX    TMP DP  RH WIND       PRES   REMARKS
LA CROSSE      PTSUNNY   69  37  30 W15G28    29.72F
SPARTA         PTSUNNY   68  36  30 W15       29.71F
VIROQUA        PTSUNNY   65  34  31 W24G30    29.75F
BOSCOBEL       LGT RAIN  70  37  29 SW10G24   29.76F
PRAIRIE DU CHI CLOUDY    68  34  28 SW16G28   29.77F
PLATTEVILLE    MOSUNNY   66  40  38 W15G22    29.80F
$$

WIZ056-057-062-063-064-067-068-032300-
SOUTH CENTRAL WISCONSIN

CITY           SKY/WX    TMP DP  RH WIND       PRES   REMARKS
REEDSBURG      CLOUDY    66  38  35 W16G24    29.73F
BARABOO/DELLS  CLOUDY    66  33  28 W14G22    29.72F
LONE ROCK      CLOUDY    68  38  33 W18G26    29.75F
MINERAL POINT  CLOUDY    64  36  34 W16G23    29.78F
MADISON        CLOUDY    65  37  35 W10G20    29.75F
MIDDLETON      CLOUDY    65  38  36 W17       29.76S
WATERTOWN      CLOUDY    65  37  36 SW12G20   29.74F
MONROE         CLOUDY    64  36  34 SW18G30   29.79F
JANESVILLE     PTSUNNY   68  34  28 W17G23    29.77F
$$

WIZ051-052-058>065-066-070>072-032300-
SOUTHEAST WISCONSIN

CITY           SKY/WX    TMP DP  RH WIND       PRES   REMARKS
MILWAUKEE      CLOUDY    66  33  29 W15G28    29.75F
WAUKESHA       PTSUNNY   64  34  32 W14G23    29.76F
MILWAUKEE/TIMM MOSUNNY   66  30  26 W16       29.75
RACINE         CLOUDY    67  35  30 W14G20    29.77F
BURLINGTON     CLOUDY    65  35  32 W12G20    29.77F
KENOSHA        CLOUDY    65  39  38 W12       29.77F
FOND DU LAC    CLOUDY    67  34  29 W13G22    29.70F
SHEBOYGAN      CLOUDY    67  35  30 SW18G25   29.70F
WEST BEND      CLOUDY    64  32  29 W14G20    29.72F
JUNEAU         CLOUDY    64  37  36 SW18G25   29.74F
$$

LSZ147-162-032300-
LAKE SUPERIOR

STATION/POSITION TIME  TEMP    WIND        PRES    WAVE
                       AIR SEA DIR/SP/G            HT/PER
                 (UTC) (F)     (DEG/KT/KT) (MB)    (FT/S)
W MID LAKE BUOY  2150   48 37  240/  6/  8 1004.9R   2/ 5
DEVILS ISLAND    2200   55      30/  8/ 10 1005.8R
SAXON HARBOR     2140   53      50/  8/  9 1004.7S
$$

LMZ867-665-643>646-032300-
LAKE MICHIGAN

STATION/POSITION TIME  TEMP    WIND        PRES    WAVE
                       AIR SEA DIR/SP/G            HT/PER
                 (UTC) (F)     (DEG/KT/KT) (MB)    (FT/S)
CHAMBERS ISLAND  2100   61     220/  3/  6 1004.4F
N MID LAKE BUOY  2150   45 39  260/ 14/ 17 1005.6R   3/ 5
NORTHPORT PIER   2130   55     300/  5/ 17 1004.7R
ALGOMA LAKESHORE 2115          280/ 12/ 15   N/A
KEWAUNEE LAKESHO 2100   68     250/  9/ 16 1004.2F
SHEBOYGAN LAKESH 2200   66     230/ 16/ 20 1005.9F
PORT WASHINGTON  2140   68     260/ 15/ 22 1007.1F
S MID LAKE BUOY  2150   46 42  170/ 12/ 14 1008.5F   1/ 3
KENOSHA   LAKESH 2200   66     240/ 12/ 19 1008.1F
$$

TC  - TEMPERATURE IN CELSIUS
VSB - VISIBILITY IN STATUTE MILES
WCI - WIND CHILL INDEX
HX  - HEAT INDEX





USA.gov is the U.S. government's official web portal to all federal, state and local government web resources and services.